Tampa Macdill AFB, FL

8:30 PM EST on November 20, 2017 (GMT -0500)
MacDill Air Force Base

Weather History for KMCF - March, 2013

Change the Weather History Date:

Tuesday, March 26, 2013

  Actual Average Record
Temperature  
Mean Temperature 52 °F -  
Max Temperature 58 °F 76 °F 88 °F (2016)
Min Temperature 47 °F 59 °F 43 °F (2014)
Degree Days  
Heating Degree Days 12    
Growing Degree Days 2 (Base 50)    
Moisture  
Dew Point 36 °F    
Average Humidity 51    
Maximum Humidity 65    
Minimum Humidity 42    
Precipitation  
Precipitation 0.00 in - - ()
Sea Level Pressure  
Sea Level Pressure 30.18 in    
Wind  
Wind Speed 13 mph (North)    
Max Wind Speed 18 mph    
Max Gust Speed 30 mph    
Visibility 10 miles    
Events      
Averages and records for this station are not official NWS values.
T = Trace of Precipitation, MM = Missing Value Source: NWS Daily Summary

Daily Weather History Graph

Daily Weather History Graph

Search for Another Location

Airport or City:

Trip Planner

Search our weather history database for the weather conditions in past years. The results will help you decide how hot, cold, wet, or windy it might be!

Date:

Astronomy

Mar. 26, 2013 Rise Set
Actual Time 7:26 AM EDT 7:44 PM EDT
Civil Twilight 7:03 AM EDT 8:08 PM EDT
Nautical Twilight 6:36 AM EDT 8:35 PM EDT
Astronomical Twilight 6:08 AM EDT 9:03 PM EDT
Moon 7:18 PM EDT (3/26) 6:41 AM EDT (3/26)
Length of Visible Light 13h 04m
Length of Day
12h 17m
Waxing Gibbous, 99% of the Moon is Illuminated
Mar 26
Waxing Gibbous
Mar 27
Full
Apr 3
Last Quarter
Apr 10
New
Apr 18
First Quarter

Hourly Weather History & Observations

Time (EDT) Temp. Dew Point Humidity Pressure Visibility Wind Dir Wind Speed Gust Speed Precip Events Conditions
12:58 AM 57.9 °F 46.0 °F 65% 30.08 in 10.0 mi North 10.4 mph 17.3 mph N/A   Clear
1:58 AM 58.5 °F 44.4 °F 60% 30.08 in 10.0 mi North 13.8 mph 19.6 mph N/A   Scattered Clouds
2:58 AM 58.6 °F 41.7 °F 53% 30.07 in 10.0 mi NNW 16.1 mph 23.0 mph N/A   Clear
3:58 AM 55.2 °F 38.3 °F 53% 30.08 in 10.0 mi NE 9.2 mph - N/A   Partly Cloudy
4:58 AM 52.9 °F 34.2 °F 49% 30.09 in 10.0 mi NNE 11.5 mph 18.4 mph N/A   Clear
5:58 AM 50.7 °F 28.0 °F 42% 30.11 in 10.0 mi NNE 12.7 mph 18.4 mph N/A   Clear
6:58 AM 49.1 °F 28.2 °F 44% 30.14 in 10.0 mi NE 10.4 mph - N/A   Scattered Clouds
7:58 AM 47.3 °F 28.2 °F 48% 30.16 in 10.0 mi NE 8.1 mph - N/A   Clear
8:58 AM 49.1 °F 29.7 °F 47% 30.19 in 10.0 mi NNE 11.5 mph - N/A   Clear
9:58 AM 52.5 °F 32.7 °F 47% 30.20 in 10.0 mi North 10.4 mph 18.4 mph N/A   Clear
10:58 AM 56.7 °F 38.1 °F 50% 30.21 in 10.0 mi North 17.3 mph 26.5 mph N/A   Scattered Clouds
11:58 AM 56.8 °F 36.0 °F 46% 30.22 in 10.0 mi North 17.3 mph 26.5 mph N/A   Clear
12:58 PM 56.8 °F 36.0 °F 46% 30.22 in 10.0 mi North 15.0 mph 25.3 mph N/A   Clear
1:58 PM 56.7 °F 36.1 °F 46% 30.23 in 10.0 mi NNW 13.8 mph 28.8 mph N/A   Clear
2:58 PM 56.7 °F 35.6 °F 45% 30.22 in 10.0 mi NNW 18.4 mph 29.9 mph N/A   Partly Cloudy
3:58 PM 56.3 °F 35.8 °F 46% 30.21 in 10.0 mi NW 16.1 mph 27.6 mph N/A   Clear
4:58 PM 55.8 °F 35.8 °F 47% 30.20 in 10.0 mi NW 16.1 mph 24.2 mph N/A   Partly Cloudy
5:58 PM 55.0 °F 34.9 °F 47% 30.20 in 10.0 mi NW 16.1 mph 23.0 mph N/A   Clear
6:58 PM 54.0 °F 35.4 °F 50% 30.20 in 10.0 mi NW 15.0 mph 20.7 mph N/A   Clear
7:58 PM 50.7 °F 35.6 °F 56% 30.22 in 10.0 mi NNW 12.7 mph - N/A   Clear
8:58 PM 49.8 °F 36.3 °F 60% 30.24 in 10.0 mi NNW 11.5 mph 18.4 mph N/A   Partly Cloudy
9:58 PM 48.9 °F 36.5 °F 62% 30.26 in 10.0 mi North 8.1 mph - N/A   Clear
10:58 PM 49.3 °F 36.5 °F 61% 30.27 in 10.0 mi North 9.2 mph 16.1 mph N/A   Clear
11:58 PM 49.6 °F 35.6 °F 59% 30.27 in 10.0 mi North 8.1 mph - N/A   Clear